Weather History for Bentonville, AR

Change the Weather History Date:

Wednesday, November 7, 2012

  Actual Average Record
Temperature  
Mean Temperature 46 °F -  
Max Temperature 59 °F 59 °F 80 °F (1963)
Min Temperature 33 °F 35 °F 15 °F (1959)
Degree Days  
Heating Degree Days 19    
Moisture  
Dew Point 28 °F    
Average Humidity 52    
Maximum Humidity 75    
Minimum Humidity 29    
Precipitation  
Precipitation 0.00 in - - ()
Sea Level Pressure  
Sea Level Pressure 30.11 in    
Wind  
Wind Speed 4 mph (North)    
Max Wind Speed 17 mph    
Max Gust Speed 23 mph    
Visibility 10 miles    
Events      
Averages and records for this station are not official NWS values.
T = Trace of Precipitation, MM = Missing Value Source: NWS Daily Summary

Daily Weather History Graph

Daily Weather History Graph

Search for Another Location

Airport:

Trip Planner

Search our weather history database for the weather conditions in past years. The results will help you decide how hot, cold, wet, or windy it might be!

Date:

Astronomy

Nov. 07, 2012 Rise Set
Actual Time 6:46 AM CST 5:14 PM CST
Civil Twilight 6:19 AM CST 5:41 PM CST
Nautical Twilight 5:48 AM CST 6:11 PM CST
Astronomical Twilight 5:18 AM CST 6:42 PM CST
Moon No Moon Rise 1:13 PM CST (11/7)
Length of Visible Light 11h 21m
Length of Day
10h 27m
Last Quarter, 43% of the Moon is Illuminated
Nov 7
Last Quarter
Nov 13
New
Nov 20
First Quarter
Nov 28
Full
Dec 6
Last Quarter

Hourly Weather History & Observations

Time (CST) Temp. Windchill Dew Point Humidity Pressure Visibility Wind Dir Wind Speed Gust Speed Precip Events Conditions
12:15 AM 41.0 °F - 28.4 °F 61% 30.07 in 10.0 mi Calm Calm - N/A   Clear
12:35 AM 42.8 °F - 28.4 °F 57% 30.07 in 10.0 mi Calm Calm - N/A   Clear
12:55 AM 39.2 °F 37.0 °F 28.4 °F 65% 30.07 in 10.0 mi WNW 3.5 mph - N/A   Clear
1:16 AM 39.2 °F 35.9 °F 28.4 °F 65% 30.07 in 10.0 mi WNW 4.6 mph - N/A   Clear
1:35 AM 42.8 °F - 28.4 °F 57% 30.07 in 10.0 mi Calm Calm - N/A   Clear
1:55 AM 39.2 °F 37.0 °F 30.2 °F 70% 30.07 in 10.0 mi NNW 3.5 mph - N/A   Clear
2:55 AM 35.6 °F - 26.6 °F 70% 30.07 in 10.0 mi Calm Calm - N/A   Clear
3:15 AM 35.6 °F - 26.6 °F 70% 30.07 in 10.0 mi Calm Calm - N/A   Clear
3:55 AM 33.8 °F - 26.6 °F 75% 30.08 in 10.0 mi Calm Calm - N/A   Clear
4:35 AM 35.6 °F 32.8 °F 26.6 °F 70% 30.09 in 10.0 mi West 3.5 mph - N/A   Clear
4:55 AM 35.6 °F - 26.6 °F 70% 30.09 in 10.0 mi Calm Calm - N/A   Clear
5:15 AM 33.8 °F - 24.8 °F 70% 30.09 in 10.0 mi Calm Calm - N/A   Clear
5:35 AM 33.8 °F - 26.6 °F 75% 30.10 in 10.0 mi Calm Calm - N/A   Clear
5:55 AM 33.8 °F - 26.6 °F 75% 30.11 in 10.0 mi Calm Calm - N/A   Clear
6:15 AM 33.8 °F 30.8 °F 26.6 °F 75% 30.11 in 10.0 mi WNW 3.5 mph - N/A   Clear
6:55 AM 35.6 °F 31.7 °F 28.4 °F 75% 30.12 in 10.0 mi NW 4.6 mph - N/A   Clear
7:15 AM 35.6 °F 32.8 °F 28.4 °F 75% 30.13 in 10.0 mi WNW 3.5 mph - N/A   Clear
8:15 AM 42.8 °F 41.1 °F 30.2 °F 61% 30.15 in 10.0 mi NW 3.5 mph - N/A   Clear
8:55 AM 46.4 °F 43.5 °F 30.2 °F 53% 30.15 in 9.0 mi North 5.8 mph - N/A   Clear
9:15 AM 48.2 °F - 30.2 °F 50% 30.15 in 10.0 mi NW 6.9 mph - N/A   Clear
9:55 AM 51.8 °F - 30.2 °F 44% 30.16 in 10.0 mi NNW 8.1 mph - N/A   Clear
10:15 AM 53.6 °F - 32.0 °F 44% 30.16 in 10.0 mi NNW 10.4 mph 16.1 mph N/A   Clear
10:35 AM 53.6 °F - 30.2 °F 41% 30.16 in 10.0 mi NW 12.7 mph 19.6 mph N/A   Clear
11:15 AM 55.4 °F - 32.0 °F 41% 30.15 in 10.0 mi NW 9.2 mph - N/A   Clear
11:35 AM 55.4 °F - 30.2 °F 38% 30.14 in 10.0 mi NNW 11.5 mph 17.3 mph N/A   Clear
11:55 AM 55.4 °F - 30.2 °F 38% 30.13 in 10.0 mi NNW 12.7 mph 18.4 mph N/A   Clear
11:56 AM 55.4 °F - 30.2 °F 38% 30.13 in 10.0 mi NW 11.5 mph 18.4 mph N/A   Clear
12:15 PM 55.4 °F - 28.4 °F 36% 30.13 in 10.0 mi North 12.7 mph 21.9 mph N/A   Clear
12:35 PM 57.2 °F - 28.4 °F 33% 30.12 in 10.0 mi North 17.3 mph 23.0 mph N/A   Clear
1:15 PM 57.2 °F - 28.4 °F 33% 30.11 in 10.0 mi North 13.8 mph - N/A   Clear
1:35 PM 57.2 °F - 28.4 °F 33% 30.10 in 10.0 mi North 11.5 mph - N/A   Clear
1:55 PM 57.2 °F - 26.6 °F 31% 30.09 in 10.0 mi North 16.1 mph - N/A   Clear
2:15 PM 59.0 °F - 26.6 °F 29% 30.09 in 10.0 mi North 9.2 mph - N/A   Clear
2:55 PM 59.0 °F - 26.6 °F 29% 30.09 in 10.0 mi NNW 8.1 mph - N/A   Clear
3:15 PM 59.0 °F - 26.6 °F 29% 30.09 in 8.0 mi North 5.8 mph - N/A   Clear
3:35 PM 59.0 °F - 26.6 °F 29% 30.09 in 10.0 mi NNW 5.8 mph - N/A   Clear
3:55 PM 57.2 °F - 26.6 °F 31% 30.09 in 10.0 mi North 8.1 mph - N/A   Clear
4:35 PM 57.2 °F - 26.6 °F 31% 30.09 in 10.0 mi NNW 5.8 mph - N/A   Clear
4:55 PM 57.2 °F - 26.6 °F 31% 30.09 in 10.0 mi Calm Calm - N/A   Clear
5:15 PM 55.4 °F - 26.6 °F 33% 30.09 in 10.0 mi Calm Calm - N/A   Clear
5:55 PM 50.0 °F - 26.6 °F 40% 30.10 in 10.0 mi ENE 3.5 mph - N/A   Clear
6:15 PM 50.0 °F - 28.4 °F 43% 30.10 in 10.0 mi NE 3.5 mph - N/A   Clear
6:35 PM 48.2 °F - 28.4 °F 46% 30.11 in 10.0 mi ENE 3.5 mph - N/A   Clear
6:55 PM 46.4 °F 45.2 °F 28.4 °F 50% 30.11 in 10.0 mi ENE 3.5 mph - N/A   Clear
6:56 PM 46.4 °F 45.2 °F 28.4 °F 50% 30.11 in 10.0 mi ENE 3.5 mph - N/A   Clear
7:15 PM 46.4 °F 45.2 °F 28.4 °F 50% 30.10 in 10.0 mi East 3.5 mph - N/A   Clear
7:35 PM 46.4 °F - 28.4 °F 50% 30.11 in 10.0 mi Calm Calm - N/A   Clear
8:15 PM 42.8 °F - 28.4 °F 57% 30.11 in 10.0 mi Calm Calm - N/A   Clear
8:35 PM 41.0 °F - 28.4 °F 61% 30.11 in 10.0 mi Calm Calm - N/A   Clear
9:15 PM 41.0 °F 38.0 °F 28.4 °F 61% 30.11 in 10.0 mi SE 4.6 mph - N/A   Clear
9:35 PM 42.8 °F 40.1 °F 30.2 °F 61% 30.11 in 10.0 mi SE 4.6 mph - N/A   Clear
10:15 PM 41.0 °F 38.0 °F 30.2 °F 65% 30.12 in 10.0 mi ESE 4.6 mph - N/A   Clear
10:35 PM 42.8 °F 39.3 °F 30.2 °F 61% 30.11 in 10.0 mi ESE 5.8 mph - N/A   Clear
10:55 PM 42.8 °F 40.1 °F 30.2 °F 61% 30.11 in 10.0 mi SE 4.6 mph - N/A   Clear
11:15 PM 42.8 °F 41.1 °F 30.2 °F 61% 30.11 in 10.0 mi ESE 3.5 mph - N/A   Clear
11:35 PM 41.0 °F 39.0 °F 30.2 °F 65% 30.11 in 10.0 mi ESE 3.5 mph - N/A   Clear
11:55 PM 41.0 °F 39.0 °F 30.2 °F 65% 30.11 in 10.0 mi East 3.5 mph - N/A   Clear